Weather in Blonti

Latvia     56°36′38″N   27°46′58″E
temp.,
°C
wind,
m/s
gust,
m/s
humid.,
%
clouds,
%
prec.,
mm/h
press.,
hPa
HPBL,
m
7 may, fri
fri700:00+4sw5138348 0.1 10031086
03:00+3sw514874 0.1 1004933
06:00+2ssw413885 0.0 1004623
09:00+7sw511655 0.0 10051164
12:00+10sw6945100 0.0 10051981
15:00+12wsw4739100 0.0 10052431
18:00+10ssw2356100 0.0 10041138
21:00+6sse2390100 0.4 100591
8 may, sat
sat800:00+5ese1194100 1.5 100455
03:00+3w119670 1.5 100412
06:00+2nw4997100 0.0 1005412
09:00+4wnw577649 0.0 1006958
12:00+5wnw5861100 0.1 10081453
15:00+9wnw584798 0.1 10092144
18:00+9wnw58525 0.1 10102061
21:00+3nw227422 0.1 101218
9 may, sun
sun900:00+1w310775 0.0 1015241
03:00−1w39870 0.0 1017167
06:000wsw26795 0.0 1019110
09:00+7sw4663100 0.0 1020639
12:00+10sw574563 0.0 10211590
15:00+13sw574192 0.0 10202232
18:00+12sw384769 0.0 10202141
21:00+7s237083 0.0 102155
10 may, mon
mon1000:00+9s5146763 0.0 1021631
03:00+8ssw5157331 0.0 1022473
06:00+8ssw41374100 0.0 1023400
09:00+11ssw41267100 0.0 1024465
12:00+17ssw69495 0.0 10241130
15:00+19s68460 0.0 10241437
18:00+17s59565 0.0 10241186
21:00+14s51467100 0.0 1023747
11 may, tue
tue1100:00+11s4147637 0.0 1025538
03:00+10s515770 0.0 1025472
06:00+9s4157967 0.0 1025483
09:00+14s513615 0.0 1025676
12:00+18s69455 0.0 10251065
15:00+19s68365 0.0 10241216
18:00+19sse59496 0.0 10231157
21:00+14sse4126719 0.0 1023497